Volver al catálogo

STARLINK-6149

ActivoComunicacionesVLEO
NORAD 57122·PAYLOAD·🇺🇸 United States

Lanzado Jun 23, 2023 desde Cape Canaveral Space Force Station

Loading…

Próximos Pases (próximas 24 horas)

TLE

ActualizadoSource: CelesTrak SupGP

Época: Sep 15, 2026, 02:24 UTC

1 57122C 23090X   26258.10048611  .00012665  00000+0  45873-3 0  2582
2 57122  43.0027 292.1743 0001294 264.5843 202.2179 15.27570762    17

Sigue STARLINK-6149 en tiempo real con AllMySat

Download on the App Store